• In Germany
  • List of Countries
  • For 7 days
  • Water Temperature
  • Satellite Maps
  • Weather Map
  • Weather Widgets
  • user-avatar
    Login

    Hourly Weather Kaprun

    Today, 29 May, Monday

    Time Temperature Precipitation Wind Pressure Humidity
    00:00 +5°C° 0 mm 1 mps 599 mmHg 81%
    01:00 +5°C° 0 mm 1 mps 599 mmHg 76%
    02:00 +4°C° 0 mm 1 mps 599 mmHg 76%
    03:00 +4°C° 0 mm 1 mps 598 mmHg 76%
    04:00 +4°C° 0 mm 1 mps 598 mmHg 76%
    05:00 +6°C° 0 mm 1 mps 599 mmHg 75%
    06:00 +9°C° 0 mm 1 mps 600 mmHg 73%
    07:00 +12°C° 0 mm 1 mps 602 mmHg 69%
    08:00 +14°C° 0 mm 1 mps 602 mmHg 63%
    09:00 +15°C° 0 mm 1 mps 603 mmHg 57%
    10:00 +18°C° 0 mm 1 mps 603 mmHg 51%
    11:00 +19°C° 0 mm 1 mps 603 mmHg 49%
    12:00 +20°C° 0 mm 1 mps 604 mmHg 47%
    13:00 +20°C° 0 mm 1 mps 604 mmHg 44%
    14:00 +20°C° 0.2 mm 1 mps 603 mmHg 48%
    15:00 +19°C° 0.2 mm 1 mps 603 mmHg 52%
    16:00 +19°C° 0.2 mm 1 mps 602 mmHg 55%
    17:00 +16°C° 0.5 mm 1 mps 601 mmHg 65%
    18:00 +14°C° 0.5 mm 1 mps 600 mmHg 76%
    19:00 +11°C° 0.5 mm 0 mps 600 mmHg 86%
    20:00 +10°C° 0.3 mm 1 mps 599 mmHg 88%
    21:00 +8°C° 0.3 mm 1 mps 598 mmHg 90%
    22:00 +6°C° 0.3 mm 1 mps 597 mmHg 92%
    23:00 +6°C° 0.1 mm 1 mps 597 mmHg 91%

    Tomorrow, 30 May, Tuesday

    Time Temperature Precipitation Wind Pressure Humidity
    00:00 +6°C° 0.1 mm 1 mps 597 mmHg 90%
    01:00 +6°C° 0.1 mm 1 mps 597 mmHg 88%
    02:00 +6°C° 0 mm 1 mps 597 mmHg 88%
    03:00 +5°C° 0 mm 1 mps 597 mmHg 88%
    04:00 +5°C° 0 mm 1 mps 597 mmHg 88%
    05:00 +7°C° 0 mm 1 mps 598 mmHg 84%
    06:00 +10°C° 0 mm 1 mps 599 mmHg 80%
    07:00 +11°C° 0 mm 0 mps 600 mmHg 75%
    08:00 +14°C° 0.1 mm 1 mps 601 mmHg 69%
    09:00 +16°C° 0.1 mm 1 mps 602 mmHg 63%
    10:00 +18°C° 0.1 mm 1 mps 603 mmHg 58%
    11:00 +18°C° 0.5 mm 1 mps 602 mmHg 61%
    12:00 +18°C° 0.5 mm 1 mps 602 mmHg 65%
    13:00 +17°C° 0.5 mm 2 mps 602 mmHg 68%
    14:00 +18°C° 1.7 mm 1 mps 602 mmHg 72%
    15:00 +16°C° 1.7 mm 1 mps 602 mmHg 76%
    16:00 +16°C° 1.7 mm 1 mps 601 mmHg 80%
    17:00 +14°C° 1.4 mm 1 mps 601 mmHg 84%
    18:00 +13°C° 1.4 mm 1 mps 601 mmHg 89%
    19:00 +11°C° 1.4 mm 0 mps 600 mmHg 94%
    20:00 +10°C° 0.6 mm 1 mps 600 mmHg 96%
    21:00 +9°C° 0.6 mm 1 mps 600 mmHg 97%
    22:00 +8°C° 0.6 mm 1 mps 600 mmHg 98%
    23:00 +8°C° 0.4 mm 1 mps 600 mmHg 98%

    Day after tomorrow, 31 May, Wednesday

    Time Temperature Precipitation Wind Pressure Humidity
    00:00 +9°C° 0.4 mm 1 mps 600 mmHg 98%
    01:00 +9°C° 0.4 mm 1 mps 600 mmHg 98%
    02:00 +9°C° 0.1 mm 1 mps 600 mmHg 97%
    03:00 +8°C° 0.1 mm 1 mps 600 mmHg 97%
    04:00 +8°C° 0.1 mm 1 mps 600 mmHg 97%
    05:00 +9°C° 0 mm 1 mps 601 mmHg 95%
    06:00 +10°C° 0 mm 1 mps 601 mmHg 93%
    07:00 +11°C° 0 mm 1 mps 602 mmHg 91%
    08:00 +12°C° 0.2 mm 1 mps 602 mmHg 86%
    09:00 +13°C° 0.2 mm 1 mps 603 mmHg 81%
    10:00 +14°C° 0.2 mm 1 mps 603 mmHg 76%
    11:00 +15°C° 1 mm 1 mps 603 mmHg 77%
    12:00 +15°C° 1 mm 1 mps 603 mmHg 78%
    13:00 +15°C° 1 mm 1 mps 603 mmHg 78%
    14:00 +15°C° 1.1 mm 1 mps 603 mmHg 79%
    15:00 +15°C° 1.1 mm 1 mps 603 mmHg 80%
    16:00 +15°C° 1.1 mm 1 mps 603 mmHg 81%
    17:00 +14°C° 0.7 mm 1 mps 602 mmHg 86%
    18:00 +13°C° 0.7 mm 1 mps 602 mmHg 90%
    19:00 +11°C° 0.7 mm 0 mps 601 mmHg 94%
    20:00 +9°C° 0.7 mm 0 mps 601 mmHg 95%
    21:00 +7°C° 0.7 mm 0 mps 600 mmHg 97%
    22:00 +5°C° 0.7 mm 0 mps 599 mmHg 98%
    23:00 +5°C° 0.3 mm 0 mps 599 mmHg 98%

    1 June, Thursday

    Time Temperature Precipitation Wind Pressure Humidity
    00:00 +5°C° 0.3 mm 0 mps 599 mmHg 98%
    01:00 +6°C° 0.3 mm 0 mps 600 mmHg 98%
    02:00 +5°C° 0.1 mm 0 mps 599 mmHg 99%
    03:00 +5°C° 0.1 mm 0 mps 599 mmHg 99%
    04:00 +4°C° 0.1 mm 0 mps 599 mmHg 99%
    05:00 +6°C° 0.1 mm 0 mps 600 mmHg 96%
    06:00 +8°C° 0.1 mm 0 mps 601 mmHg 93%
    07:00 +10°C° 0.1 mm 0 mps 602 mmHg 91%
    08:00 +11°C° 0.3 mm 0 mps 602 mmHg 87%
    09:00 +13°C° 0.3 mm 1 mps 603 mmHg 82%
    10:00 +14°C° 0.3 mm 1 mps 603 mmHg 78%
    11:00 +14°C° 0.7 mm 1 mps 603 mmHg 77%
    12:00 +14°C° 0.7 mm 1 mps 603 mmHg 77%
    13:00 +15°C° 0.7 mm 1 mps 603 mmHg 76%
    14:00 +15°C° 0.9 mm 1 mps 603 mmHg 78%
    15:00 +14°C° 0.9 mm 1 mps 603 mmHg 79%
    16:00 +14°C° 0.9 mm 1 mps 603 mmHg 80%
    17:00 +13°C° 0.7 mm 1 mps 602 mmHg 85%
    18:00 +12°C° 0.7 mm 1 mps 602 mmHg 89%
    19:00 +11°C° 0.7 mm 1 mps 602 mmHg 93%
    20:00 +10°C° 0.3 mm 1 mps 601 mmHg 95%
    21:00 +7°C° 0.3 mm 0 mps 600 mmHg 96%
    22:00 +5°C° 0.3 mm 0 mps 600 mmHg 98%
    23:00 +6°C° 0 mm 1 mps 600 mmHg 98%

    2 June, Friday

    Time Temperature Precipitation Wind Pressure Humidity
    00:00 +6°C° 0 mm 1 mps 600 mmHg 97%
    01:00 +6°C° 0 mm 1 mps 600 mmHg 97%
    02:00 +6°C° 0.3 mm 1 mps 599 mmHg 97%
    03:00 +6°C° 0.3 mm 1 mps 599 mmHg 97%
    04:00 +5°C° 0.3 mm 1 mps 599 mmHg 97%
    05:00 +7°C° 0.1 mm 1 mps 600 mmHg 93%
    06:00 +9°C° 0.1 mm 1 mps 601 mmHg 90%
    07:00 +10°C° 0.1 mm 1 mps 602 mmHg 87%
    08:00 +12°C° 0.1 mm 1 mps 602 mmHg 80%
    09:00 +13°C° 0.1 mm 1 mps 603 mmHg 73%
    10:00 +15°C° 0.1 mm 1 mps 603 mmHg 65%
    11:00 +15°C° 0.4 mm 1 mps 603 mmHg 65%
    12:00 +16°C° 0.4 mm 2 mps 603 mmHg 65%
    13:00 +16°C° 0.4 mm 2 mps 603 mmHg 65%
    14:00 +16°C° 0.8 mm 2 mps 602 mmHg 68%
    15:00 +16°C° 0.8 mm 2 mps 602 mmHg 71%
    16:00 +15°C° 0.8 mm 2 mps 602 mmHg 74%
    17:00 +14°C° 0.7 mm 1 mps 601 mmHg 80%
    18:00 +13°C° 0.7 mm 1 mps 601 mmHg 86%
    19:00 +12°C° 0.7 mm 1 mps 600 mmHg 92%
    20:00 +10°C° 0.4 mm 1 mps 600 mmHg 93%
    21:00 +8°C° 0.4 mm 1 mps 599 mmHg 94%
    22:00 +7°C° 0.4 mm 1 mps 598 mmHg 95%
    23:00 +7°C° 0.1 mm 1 mps 598 mmHg 95%

    3 June, Saturday

    Time Temperature Precipitation Wind Pressure Humidity
    00:00 +6°C° 0.1 mm 1 mps 598 mmHg 95%
    01:00 +6°C° 0.1 mm 1 mps 598 mmHg 95%
    02:00 +6°C° 0 mm 1 mps 597 mmHg 94%
    03:00 +5°C° 0 mm 1 mps 597 mmHg 94%
    04:00 +4°C° 0 mm 1 mps 597 mmHg 93%
    05:00 +7°C° 0 mm 1 mps 598 mmHg 89%
    06:00 +9°C° 0 mm 1 mps 599 mmHg 85%
    07:00 +10°C° 0 mm 0 mps 600 mmHg 81%
    08:00 +13°C° 0.2 mm 1 mps 601 mmHg 75%
    09:00 +15°C° 0.2 mm 1 mps 601 mmHg 69%
    10:00 +16°C° 0.2 mm 1 mps 602 mmHg 62%
    11:00 +16°C° 0.7 mm 1 mps 602 mmHg 65%
    12:00 +16°C° 0.7 mm 1 mps 601 mmHg 67%
    13:00 +16°C° 0.7 mm 1 mps 601 mmHg 70%
    14:00 +16°C° 1 mm 1 mps 601 mmHg 72%
    15:00 +16°C° 1 mm 1 mps 601 mmHg 73%
    16:00 +16°C° 1 mm 1 mps 601 mmHg 75%
    17:00 +15°C° 0.9 mm 1 mps 600 mmHg 80%
    18:00 +14°C° 0.9 mm 1 mps 600 mmHg 85%
    19:00 +13°C° 0.9 mm 1 mps 599 mmHg 90%
    20:00 +11°C° 0.3 mm 1 mps 599 mmHg 91%
    21:00 +10°C° 0.3 mm 1 mps 598 mmHg 93%
    22:00 +8°C° 0.3 mm 1 mps 598 mmHg 94%
    23:00 +8°C° 0.1 mm 1 mps 598 mmHg 94%
    Show more